Flag for Switzerland Weather past 2 weeks in Schwyz, Schwyz, Switzerland

Now
41 °F

Quite cool.


Feels Like: 35 °F
Forecast: 28 / 39 °F
Wind: 12 mph from North

Location: Altdorf

Current Time: Dec 25, 2014 at 11:57:32 PM

Latest Report: Dec 25, 2014 at 11:00 PM


Visibility: N/A

Pressure: 30.43 "Hg

Humidity: 55%

Dew point: 26 °F

Location of SchwyzLocation

Historic Weather in Schwyz — Graph

°F

Schwyz temperature yesterday

Maximum temperature yesterday: 41 °F (at 2:00 PM)
Minimum temperature yesterday: 27 °F (at 5:00 AM)
Average temperature yesterday: 32 °F

Past Weeks' High & Low Weather Summary

 TemperatureHumidityPressure
High59 °F (Dec 13, 1:00 PM)100% (Dec 18, 10:00 PM)30.62 "Hg (Dec 18, 10:00 PM)
Low27 °F (Dec 24, 5:00 AM)31% (Dec 12, 10:00 PM)29.82 "Hg (Dec 12, 10:00 PM)
Average42 °F80%30.18 "Hg
* Reported Dec 10 9:00 PM — Dec 25 9:00 PM, Schwyz, Weather by CustomWeather, © 2014

Note: Actual official high and low records may vary slightly from our data, if they occured in-between our weather recording intervals... More about our weather records

Advertising

Schwyz weather history for previous 24 hours

 ConditionsComfort  
Time TempWeatherWind HumidityBarometerVisibility
9:00 PM
Dec 25
40 °FChilly.14 mph68%30.44 "HgN/A
8:00 PM39 °FChilly.17 mph74%30.44 "HgN/A
7:00 PM40 °FDrizzle. Overcast.17 mph73%30.42 "Hg7 mi
6:00 PM39 °FChilly.18 mph81%30.40 "HgN/A
5:00 PM40 °FQuite cool.15 mph82%30.37 "HgN/A
4:00 PM40 °FDrizzle. Overcast.18 mph86%30.37 "Hg7 mi
3:00 PM43 °FQuite cool.16 mph79%30.33 "HgN/A
2:00 PM40 °FQuite cool.5 mph93%30.34 "HgN/A
1:00 PM40 °FOvercast.1 mph92%30.34 "Hg11 mi
12:00 PM39 °FChilly.1 mph89%30.37 "HgN/A
11:00 AM39 °FChilly.2 mph87%30.36 "HgN/A
10:00 AM39 °FOvercast.1 mph80%30.36 "Hg12 mi
9:00 AM37 °FChilly.2 mph85%30.35 "HgN/A
8:00 AM39 °FChilly.3 mph74%30.34 "HgN/A
7:00 AM36 °FPassing clouds.3 mph84%30.35 "Hg12 mi
6:00 AM38 °FChilly.1 mph71%30.33 "HgN/A
5:00 AM35 °FChilly.3 mph84%30.35 "HgN/A
4:00 AM34 °FPassing clouds.1 mph88%30.36 "Hg12 mi
3:00 AM35 °FChilly.3 mph81%30.36 "HgN/A
2:00 AM34 °FChilly.5 mph83%30.36 "HgN/A
1:00 AM33 °FPassing clouds.2 mph85%30.38 "Hg12 mi
12:00 AM31 °FChilly.3 mph87%30.39 "HgN/A
11:00 PM
Dec 24
29 °FChilly.3 mph90%30.40 "HgN/A
Weather by CustomWeather, © 2014

See weather overviewHow to use our weather pages